Location: Béaulencourt
(50.0796°N, 2.8795°E)
Time: 23:15:06
(UTC+00:00)

NOSS 2-2 (D) - Pass Details

Date: 20 January 2026
Orbit: 384 x 1700 km, 63.3° (Epoch: 9 February)

Event Time Altitude Azimuth Distance (km) Brightness Sun altitude
Rises 06:28:41 0° 212° (SSW) 2,575 6.6 -10.8°
Reaches altitude 10° 06:31:00 10° 208° (SSW) 1,575 5.6 -10.4°
Maximum altitude 06:34:17 55° 129° (SE) 491 3.5 -9.9°
Drops below altitude 10° 06:37:14 10° 51° (NE) 1,419 5.9 -9.5°
Sets 06:39:14 0° 46° (NE) 2,283 6.9 -9.2°
